This is the latest recevied weather packets stored in our database for station/object DG6YGE-6. If no packets are shown the sender has not sent any weather packets the latest 1 day(s).
| Time | Temp. | Humidity | Pressure | Rain* | Wind** | Luminosity | Snow |
|---|---|---|---|---|---|---|---|
| 1777990152 | 11.67° C | 90% | 1008 hPa | 0 mm | 1.34 m/s, 188° | 185 W/m² | - |
| 1777989552 | 11.67° C | 91% | 1008.1 hPa | 0 mm | 1.34 m/s, 247° | 160 W/m² | - |
| 1777988951 | 11.11° C | 90% | 1008.2 hPa | 0 mm | 1.34 m/s, 107° | 165 W/m² | - |
| 1777988351 | 11.11° C | 90% | 1008.2 hPa | 0 mm | 1.34 m/s, 242° | 191 W/m² | - |
| 1777987751 | 11.67° C | 91% | 1008.3 hPa | 0 mm | 0.89 m/s, 300° | 179 W/m² | - |
| 1777987151 | 11.11° C | 90% | 1008.3 hPa | 0 mm | 0.89 m/s, 360° | 193 W/m² | - |
| 1777986552 | 11.67° C | 91% | 1008.4 hPa | 0 mm | 1.34 m/s, 192° | 196 W/m² | - |
| 1777985951 | 11.11° C | 91% | 1008.3 hPa | 0 mm | 1.34 m/s, 186° | 266 W/m² | - |
| 1777985351 | 11.11° C | 91% | 1008.4 hPa | 0 mm | 0.45 m/s, 241° | 266 W/m² | - |
| 1777984751 | 11.11° C | 91% | 1008.5 hPa | 0 mm | 0.89 m/s, 360° | 226 W/m² | - |
| 1777984152 | 11.11° C | 91% | 1008.4 hPa | 0 mm | 1.34 m/s, 130° | 338 W/m² | - |
| 1777983551 | 11.11° C | 91% | 1008.6 hPa | 0 mm | 1.34 m/s, 140° | 210 W/m² | - |
| 1777982952 | 11.11° C | 91% | 1008.6 hPa | 0 mm | 0.89 m/s, 192° | 179 W/m² | - |
| 1777982352 | 11.11° C | 92% | 1008.6 hPa | 0 mm | 0.89 m/s, 360° | 276 W/m² | - |
| 1777981752 | 10.56° C | 92% | 1008.6 hPa | 0 mm | 0.89 m/s, 157° | 334 W/m² | - |
| 1777981151 | 10.56° C | 92% | 1008.6 hPa | 0 mm | 0.89 m/s, 201° | 205 W/m² | - |
| 1777980551 | 10.56° C | 92% | 1008.7 hPa | 0 mm | 0.89 m/s, 128° | 176 W/m² | - |
| 1777979951 | 10.56° C | 92% | 1008.7 hPa | 0 mm | 0.89 m/s, 208° | 216 W/m² | - |
| 1777979351 | 10.56° C | 92% | 1008.8 hPa | 0 mm | 0.45 m/s, 165° | 221 W/m² | - |
| 1777978752 | 10.56° C | 93% | 1008.9 hPa | 0 mm | 0.89 m/s, 167° | 188 W/m² | - |
| 1777978152 | 10.56° C | 92% | 1009 hPa | 0 mm | 0.89 m/s, 308° | 140 W/m² | - |
| 1777977552 | 10.56° C | 92% | 1009 hPa | 0 mm | 0.45 m/s, 202° | 128 W/m² | - |
| 1777976951 | 10.56° C | 92% | 1009 hPa | 0 mm | 0.45 m/s, 86° | 157 W/m² | - |
| 1777976352 | 10.56° C | 93% | 1008.9 hPa | 0 mm | 0.45 m/s, 138° | 180 W/m² | - |
| 1777975751 | 10.56° C | 92% | 1009 hPa | 0 mm | 0.89 m/s, 88° | 197 W/m² | - |
* Rain latest hour (hover to see other rain measurements)
** Current wind speed in m/s (hover to see current wind gust speed)